AMX718 SKBO-MMMX

Flight info

Callsign AMX718
Flight time 3h 59m
Altitude 34000
Route TOBKI4R VASIL UL423 IMOLA/N0455F360 UL423 IZT UT157 LARLO LARLO4A
Aircraft B38M/M-SDE1FGHILORVWXY/HB1

Departure

Time 2026-05-07 16:58
Airport El Dorado International Airport (SKBO)

Arrival

Time 2026-05-07 20:57
Airport Mexico City Benito Juárez International Airport (MMMX)
Time Latitude Longitude Altitude Speed Heading
2026-05-07 16:29 4.69831 -74.14392 8367 ft 0 kts 226°
2026-05-07 16:43 4.69842 -74.14380 8368 ft 4 kts 226°
2026-05-07 16:43 4.69857 -74.14364 8367 ft 4 kts 227°
2026-05-07 16:43 4.69868 -74.14348 8368 ft 4 kts 291°
2026-05-07 16:44 4.69856 -74.14330 8367 ft 2 kts 306°
2026-05-07 16:44 4.69855 -74.14328 8367 ft 2 kts 306°
2026-05-07 16:47 4.69858 -74.14332 8367 ft 3 kts 306°
2026-05-07 16:48 4.69891 -74.14377 8368 ft 12 kts 307°
2026-05-07 16:48 4.69953 -74.14459 8368 ft 18 kts 307°
2026-05-07 16:48 4.70021 -74.14550 8368 ft 14 kts 307°
2026-05-07 16:48 4.70094 -74.14614 8368 ft 14 kts 317°
2026-05-07 16:49 4.70151 -74.14667 8368 ft 10 kts 301°
2026-05-07 16:49 4.70134 -74.14724 8368 ft 9 kts 218°
2026-05-07 16:49 4.70084 -74.14764 8368 ft 10 kts 218°
2026-05-07 16:49 4.70030 -74.14803 8367 ft 10 kts 216°
2026-05-07 16:50 4.69971 -74.14847 8367 ft 13 kts 217°
2026-05-07 16:50 4.69888 -74.14909 8367 ft 16 kts 217°
2026-05-07 16:50 4.69855 -74.14982 8368 ft 10 kts 303°
2026-05-07 16:50 4.69896 -74.15035 8367 ft 10 kts 307°
2026-05-07 16:51 4.69950 -74.15107 8367 ft 16 kts 307°
2026-05-07 16:51 4.70019 -74.15198 8367 ft 16 kts 307°
2026-05-07 16:51 4.70087 -74.15288 8367 ft 16 kts 307°
2026-05-07 16:51 4.70154 -74.15378 8367 ft 16 kts 307°
2026-05-07 16:52 4.70221 -74.15467 8367 ft 16 kts 307°
2026-05-07 16:52 4.70287 -74.15553 8367 ft 15 kts 307°
2026-05-07 16:52 4.70354 -74.15641 8367 ft 17 kts 307°
2026-05-07 16:52 4.70425 -74.15734 8367 ft 16 kts 307°
2026-05-07 16:53 4.70492 -74.15822 8367 ft 16 kts 308°
2026-05-07 16:53 4.70561 -74.15909 8367 ft 16 kts 308°
2026-05-07 16:53 4.70626 -74.15995 8368 ft 15 kts 307°
2026-05-07 16:53 4.70689 -74.16078 8368 ft 15 kts 307°
2026-05-07 16:54 4.70754 -74.16165 8368 ft 16 kts 307°
2026-05-07 16:54 4.70830 -74.16268 8368 ft 21 kts 307°
2026-05-07 16:54 4.70921 -74.16388 8368 ft 22 kts 308°
2026-05-07 16:54 4.71011 -74.16506 8367 ft 21 kts 307°
2026-05-07 16:55 4.71099 -74.16622 8368 ft 21 kts 307°
2026-05-07 16:55 4.71185 -74.16736 8367 ft 20 kts 307°
2026-05-07 16:55 4.71245 -74.16833 8367 ft 12 kts 272°
2026-05-07 16:55 4.71226 -74.16871 8367 ft 3 kts 217°
2026-05-07 16:56 4.71205 -74.16886 8368 ft 6 kts 216°
2026-05-07 16:56 4.71142 -74.16895 8367 ft 11 kts 172°
2026-05-07 16:56 4.71001 -74.16856 8367 ft 0 kts 128°
2026-05-07 16:57 4.70977 -74.16825 8367 ft 27 kts 128°
2026-05-07 16:57 4.70731 -74.16498 8368 ft 89 kts 127°
2026-05-07 16:57 4.70247 -74.15858 8366 ft 141 kts 127°
2026-05-07 16:57 4.69563 -74.14951 8386 ft 182 kts 126°
2026-05-07 16:58 4.68756 -74.13903 8834 ft 197 kts 126°
2026-05-07 16:58 4.67755 -74.12902 9515 ft 209 kts 141°
2026-05-07 16:58 4.66494 -74.12162 10229 ft 213 kts 157°
2026-05-07 16:58 4.65030 -74.11863 10827 ft 220 kts 177°
2026-05-07 16:59 4.63477 -74.12182 11202 ft 243 kts 207°
2026-05-07 16:59 4.62357 -74.13414 11861 ft 250 kts 244°
2026-05-07 16:59 4.61955 -74.15141 12385 ft 263 kts 262°
2026-05-07 16:59 4.61710 -74.17020 12756 ft 281 kts 260°
2026-05-07 17:00 4.61431 -74.19018 13188 ft 297 kts 260°
2026-05-07 17:00 4.61145 -74.21104 13743 ft 306 kts 261°
2026-05-07 17:00 4.60850 -74.23280 14128 ft 324 kts 260°
2026-05-07 17:00 4.60539 -74.25580 14369 ft 343 kts 261°
2026-05-07 17:01 4.60282 -74.28014 14709 ft 358 kts 266°
2026-05-07 17:01 4.60154 -74.30539 15234 ft 364 kts 265°
2026-05-07 17:01 4.60063 -74.32215 15627 ft 364 kts 265°
2026-05-07 17:01 4.59863 -74.35630 16421 ft 370 kts 266°
2026-05-07 17:02 4.59754 -74.38210 17046 ft 372 kts 273°
2026-05-07 17:02 4.60289 -74.40740 17617 ft 373 kts 293°
2026-05-07 17:02 4.61587 -74.42985 18240 ft 373 kts 308°
2026-05-07 17:02 4.63155 -74.45079 18696 ft 378 kts 308°
2026-05-07 17:03 4.64756 -74.47174 19184 ft 380 kts 309°
2026-05-07 17:03 4.66360 -74.49248 19642 ft 382 kts 309°
2026-05-07 17:03 4.68004 -74.51356 20137 ft 385 kts 309°
2026-05-07 17:03 4.69657 -74.53466 20612 ft 387 kts 309°
2026-05-07 17:04 4.71334 -74.55605 21091 ft 390 kts 309°
2026-05-07 17:04 4.73018 -74.57750 21531 ft 393 kts 309°
2026-05-07 17:04 4.74764 -74.59864 21967 ft 394 kts 317°
2026-05-07 17:04 4.76907 -74.61564 22382 ft 394 kts 324°
2026-05-07 17:05 4.79113 -74.63225 22800 ft 398 kts 324°
2026-05-07 17:05 4.81334 -74.64887 23267 ft 400 kts 324°
2026-05-07 17:05 4.83579 -74.66559 23641 ft 403 kts 324°
2026-05-07 17:05 4.85801 -74.68288 24014 ft 404 kts 323°
2026-05-07 17:06 4.88026 -74.70025 24380 ft 407 kts 323°
2026-05-07 17:06 4.90267 -74.71773 24738 ft 409 kts 323°
2026-05-07 17:06 4.91758 -74.72934 24999 ft 410 kts 323°
2026-05-07 17:06 4.93821 -74.74907 25342 ft 412 kts 307°
2026-05-07 17:07 4.95293 -74.77377 25732 ft 414 kts 297°
2026-05-07 17:07 4.96611 -74.79954 26049 ft 417 kts 297°
2026-05-07 17:07 4.97918 -74.82558 26430 ft 419 kts 297°
2026-05-07 17:07 4.99637 -74.86041 26903 ft 421 kts 296°
2026-05-07 17:08 5.00931 -74.88689 27255 ft 423 kts 296°
2026-05-07 17:08 5.01804 -74.90481 27482 ft 425 kts 296°
2026-05-07 17:08 5.03103 -74.93148 27817 ft 426 kts 296°
2026-05-07 17:08 5.04406 -74.95827 28165 ft 428 kts 296°
2026-05-07 17:09 5.05716 -74.98518 28512 ft 429 kts 296°
2026-05-07 17:09 5.07030 -75.01219 28831 ft 432 kts 296°
2026-05-07 17:09 5.08331 -75.03893 29156 ft 433 kts 296°
2026-05-07 17:09 5.09654 -75.06613 29493 ft 435 kts 296°
2026-05-07 17:10 5.10981 -75.09342 29806 ft 436 kts 296°
2026-05-07 17:10 5.12315 -75.12085 30109 ft 438 kts 296°
2026-05-07 17:10 5.13655 -75.14842 30361 ft 440 kts 296°
2026-05-07 17:10 5.15007 -75.17592 30648 ft 441 kts 298°
2026-05-07 17:11 5.16801 -75.20080 31030 ft 441 kts 312°
2026-05-07 17:11 5.18841 -75.22391 31261 ft 444 kts 310°
2026-05-07 17:11 5.20871 -75.24732 31503 ft 445 kts 310°
2026-05-07 17:11 5.22921 -75.27068 31756 ft 446 kts 310°
2026-05-07 17:12 5.24983 -75.29406 32003 ft 448 kts 310°
2026-05-07 17:12 5.27052 -75.31748 32231 ft 449 kts 310°
2026-05-07 17:12 5.29130 -75.34098 32463 ft 450 kts 310°
2026-05-07 17:12 5.31215 -75.36456 32674 ft 452 kts 310°
2026-05-07 17:13 5.33307 -75.38823 32896 ft 454 kts 310°
2026-05-07 17:13 5.35400 -75.41191 33167 ft 453 kts 310°
2026-05-07 17:13 5.37492 -75.43558 33450 ft 453 kts 310°
2026-05-07 17:13 5.39579 -75.45919 33751 ft 452 kts 310°
2026-05-07 17:14 5.41663 -75.48279 33990 ft 452 kts 310°
2026-05-07 17:14 5.43724 -75.50611 33994 ft 451 kts 310°
2026-05-07 17:14 5.47869 -75.55303 33984 ft 448 kts 310°
2026-05-07 17:15 5.52012 -75.59995 33981 ft 449 kts 310°
2026-05-07 17:15 5.56150 -75.64681 33968 ft 448 kts 310°
2026-05-07 17:16 5.60287 -75.69369 33969 ft 448 kts 310°
2026-05-07 17:16 5.64423 -75.74055 33969 ft 448 kts 310°
2026-05-07 17:17 5.68552 -75.78734 33971 ft 448 kts 310°
2026-05-07 17:17 5.72085 -75.83815 33980 ft 444 kts 294°
2026-05-07 17:18 5.74792 -75.89416 33980 ft 446 kts 295°
2026-05-07 17:18 5.77453 -75.95004 33979 ft 446 kts 295°
2026-05-07 17:19 5.80119 -76.00635 33982 ft 446 kts 295°
2026-05-07 17:19 5.82779 -76.06259 33976 ft 446 kts 295°
2026-05-07 17:20 5.85439 -76.11882 33982 ft 445 kts 295°
2026-05-07 17:20 5.88095 -76.17499 33979 ft 445 kts 295°
2026-05-07 17:21 5.90747 -76.23112 33983 ft 444 kts 295°
2026-05-07 17:21 5.93391 -76.28705 33971 ft 443 kts 295°
2026-05-07 17:22 5.96035 -76.34303 33970 ft 444 kts 295°
2026-05-07 17:22 5.98683 -76.39911 33950 ft 444 kts 295°
2026-05-07 17:23 6.01330 -76.45517 33947 ft 444 kts 295°
2026-05-07 17:23 6.03980 -76.51133 33937 ft 445 kts 295°
2026-05-07 17:24 6.06633 -76.56756 33929 ft 446 kts 295°
2026-05-07 17:24 6.09271 -76.62348 33928 ft 446 kts 295°
2026-05-07 17:25 6.11932 -76.67994 33920 ft 447 kts 295°
2026-05-07 17:25 6.14591 -76.73636 33917 ft 447 kts 295°
2026-05-07 17:26 6.17249 -76.79277 33915 ft 447 kts 295°
2026-05-07 17:26 6.19905 -76.84916 33916 ft 446 kts 295°
2026-05-07 17:27 6.22563 -76.90560 33924 ft 447 kts 295°
2026-05-07 17:27 6.25221 -76.96206 33916 ft 446 kts 295°
2026-05-07 17:28 6.27879 -77.01855 33923 ft 447 kts 295°
2026-05-07 17:28 6.30537 -77.07504 33925 ft 446 kts 295°
2026-05-07 17:29 6.33192 -77.13152 33917 ft 447 kts 295°
2026-05-07 17:29 6.35829 -77.18761 33917 ft 447 kts 295°
2026-05-07 17:30 6.38483 -77.24407 33920 ft 447 kts 295°
2026-05-07 17:30 6.41138 -77.30059 33921 ft 447 kts 295°
2026-05-07 17:31 6.43796 -77.35719 33922 ft 447 kts 295°
2026-05-07 17:31 6.46451 -77.41374 33923 ft 448 kts 295°
2026-05-07 17:32 6.49109 -77.47039 33928 ft 448 kts 295°
2026-05-07 17:32 6.51769 -77.52708 33926 ft 448 kts 295°
2026-05-07 17:33 6.54425 -77.58371 33928 ft 448 kts 295°
2026-05-07 17:33 6.57087 -77.64050 33932 ft 448 kts 295°
2026-05-07 17:34 6.59749 -77.69729 33931 ft 448 kts 295°
2026-05-07 17:34 6.62404 -77.75396 33925 ft 448 kts 295°
2026-05-07 17:35 6.65064 -77.81076 33927 ft 449 kts 295°
2026-05-07 17:35 6.67705 -77.86717 33923 ft 449 kts 295°
2026-05-07 17:36 6.70363 -77.92397 33924 ft 449 kts 295°
2026-05-07 17:36 6.73021 -77.98078 33932 ft 449 kts 295°
2026-05-07 17:37 6.75681 -78.03766 33927 ft 449 kts 295°
2026-05-07 17:37 6.78341 -78.09454 33924 ft 449 kts 295°
2026-05-07 17:38 6.81001 -78.15145 33927 ft 449 kts 295°
2026-05-07 17:38 6.83670 -78.20831 33927 ft 449 kts 297°
2026-05-07 17:39 6.86886 -78.26213 33927 ft 449 kts 301°
2026-05-07 17:39 6.90054 -78.31586 33924 ft 449 kts 300°
2026-05-07 17:40 6.93223 -78.36998 33926 ft 449 kts 300°
2026-05-07 17:40 6.96395 -78.42420 33929 ft 450 kts 300°
2026-05-07 17:41 6.99572 -78.47852 33925 ft 450 kts 300°
2026-05-07 17:41 7.02750 -78.53289 33925 ft 450 kts 300°
2026-05-07 17:42 7.05930 -78.58729 33924 ft 450 kts 300°
2026-05-07 17:42 7.09111 -78.64174 33924 ft 451 kts 300°
2026-05-07 17:43 7.12294 -78.69615 33926 ft 451 kts 301°
2026-05-07 17:43 7.15493 -78.75056 33924 ft 451 kts 300°
2026-05-07 17:44 7.18669 -78.80461 33925 ft 451 kts 300°
2026-05-07 17:44 7.21865 -78.85904 33929 ft 451 kts 300°
2026-05-07 17:45 7.25061 -78.91346 33928 ft 451 kts 300°
2026-05-07 17:45 7.28260 -78.96796 33925 ft 452 kts 300°
2026-05-07 17:46 7.31454 -79.02240 33923 ft 451 kts 300°
2026-05-07 17:46 7.34647 -79.07685 33928 ft 451 kts 300°
2026-05-07 17:47 7.37835 -79.13121 33927 ft 450 kts 300°
2026-05-07 17:47 7.41023 -79.18560 33926 ft 450 kts 300°
2026-05-07 17:48 7.44203 -79.23987 33925 ft 449 kts 300°
2026-05-07 17:48 7.47376 -79.29405 33929 ft 449 kts 300°
2026-05-07 17:49 7.50526 -79.34785 33929 ft 449 kts 301°
2026-05-07 17:49 7.53700 -79.40207 33923 ft 448 kts 301°
2026-05-07 17:50 7.56867 -79.45620 33923 ft 448 kts 301°
2026-05-07 17:50 7.60032 -79.51031 33926 ft 448 kts 301°
2026-05-07 17:51 7.63194 -79.56440 33923 ft 448 kts 301°
2026-05-07 17:51 7.66362 -79.61861 33927 ft 448 kts 301°
2026-05-07 17:52 7.69505 -79.67241 33924 ft 449 kts 301°
2026-05-07 17:52 7.72674 -79.72666 33923 ft 449 kts 301°
2026-05-07 17:53 7.75844 -79.78095 33925 ft 449 kts 301°
2026-05-07 17:53 7.79016 -79.83530 33923 ft 449 kts 301°
2026-05-07 17:54 7.82186 -79.88965 33925 ft 450 kts 301°
2026-05-07 17:54 7.85358 -79.94403 33925 ft 450 kts 301°
2026-05-07 17:55 7.88512 -79.99815 33926 ft 450 kts 301°
2026-05-07 17:55 7.91686 -80.05261 33922 ft 449 kts 301°
2026-05-07 17:56 7.94851 -80.10695 33923 ft 449 kts 301°
2026-05-07 17:56 7.98016 -80.16128 33926 ft 449 kts 301°
2026-05-07 17:57 8.00666 -80.20682 33921 ft 449 kts 301°
2026-05-07 17:57 8.04342 -80.26999 33923 ft 449 kts 301°
2026-05-07 17:58 8.06969 -80.31515 33921 ft 449 kts 301°
2026-05-07 17:58 8.10125 -80.36944 33918 ft 448 kts 301°
2026-05-07 17:59 8.13282 -80.42374 33919 ft 448 kts 301°
2026-05-07 17:59 8.16438 -80.47807 33916 ft 448 kts 301°
2026-05-07 18:00 8.19591 -80.53235 33922 ft 448 kts 301°
2026-05-07 18:00 8.22742 -80.58663 33917 ft 448 kts 301°
2026-05-07 18:01 8.25896 -80.64099 33921 ft 449 kts 301°
2026-05-07 18:01 8.29050 -80.69535 33929 ft 449 kts 301°
2026-05-07 18:02 8.33785 -80.77702 33930 ft 449 kts 301°
2026-05-07 18:03 8.36943 -80.83152 33931 ft 449 kts 301°
2026-05-07 18:03 8.40074 -80.88557 33939 ft 449 kts 301°
2026-05-07 18:04 8.43232 -80.94009 33944 ft 449 kts 301°
2026-05-07 18:04 8.46383 -80.99452 33949 ft 449 kts 301°
2026-05-07 18:05 8.49537 -81.04903 33947 ft 449 kts 301°
2026-05-07 18:05 8.52688 -81.10352 33958 ft 449 kts 301°
2026-05-07 18:06 8.55844 -81.15810 33956 ft 449 kts 301°
2026-05-07 18:06 8.58992 -81.21257 33959 ft 449 kts 301°
2026-05-07 18:07 8.62137 -81.26703 33965 ft 449 kts 301°
2026-05-07 18:07 8.65265 -81.32120 33967 ft 449 kts 301°
2026-05-07 18:08 8.68413 -81.37573 33972 ft 449 kts 301°
2026-05-07 18:08 8.71557 -81.43022 33973 ft 449 kts 301°
2026-05-07 18:09 8.74701 -81.48475 33977 ft 449 kts 301°
2026-05-07 18:09 8.77844 -81.53927 33978 ft 449 kts 301°
2026-05-07 18:10 8.80989 -81.59385 33972 ft 449 kts 301°
2026-05-07 18:10 8.84130 -81.64839 33973 ft 449 kts 301°
2026-05-07 18:11 8.87272 -81.70295 33973 ft 449 kts 301°
2026-05-07 18:11 8.90418 -81.75761 33976 ft 449 kts 301°
2026-05-07 18:12 8.93538 -81.81186 33966 ft 449 kts 301°
2026-05-07 18:12 8.96677 -81.86644 33969 ft 449 kts 301°
2026-05-07 18:13 8.99817 -81.92108 33968 ft 449 kts 301°
2026-05-07 18:13 9.02957 -81.97572 33966 ft 449 kts 301°
2026-05-07 18:14 9.06094 -82.03036 33962 ft 449 kts 301°
2026-05-07 18:14 9.09231 -82.08501 33969 ft 449 kts 301°
2026-05-07 18:15 9.12371 -82.13973 33968 ft 449 kts 301°
2026-05-07 18:15 9.15509 -82.19445 33969 ft 450 kts 301°
2026-05-07 18:16 9.18649 -82.24922 33978 ft 449 kts 301°
2026-05-07 18:16 9.21786 -82.30397 33969 ft 449 kts 301°
2026-05-07 18:17 9.24921 -82.35869 33978 ft 450 kts 301°
2026-05-07 18:17 9.28037 -82.41311 33976 ft 450 kts 301°
2026-05-07 18:18 9.31172 -82.46791 33978 ft 450 kts 301°
2026-05-07 18:18 9.34307 -82.52271 33977 ft 449 kts 301°
2026-05-07 18:19 9.37438 -82.57745 33978 ft 449 kts 301°
2026-05-07 18:19 9.40569 -82.63224 33986 ft 449 kts 301°
2026-05-07 18:20 9.43701 -82.68706 33986 ft 449 kts 301°
2026-05-07 18:20 9.46831 -82.74188 33988 ft 449 kts 301°
2026-05-07 18:21 9.49940 -82.79633 33986 ft 450 kts 301°
2026-05-07 18:21 9.53076 -82.85130 33987 ft 450 kts 301°
2026-05-07 18:22 9.56230 -82.90605 33989 ft 450 kts 301°
2026-05-07 18:22 9.59393 -82.96083 33994 ft 451 kts 301°
2026-05-07 18:23 9.62556 -83.01567 33996 ft 451 kts 301°
2026-05-07 18:23 9.65721 -83.07055 33994 ft 451 kts 301°
2026-05-07 18:24 9.68893 -83.12558 33994 ft 452 kts 301°
2026-05-07 18:24 9.72063 -83.18061 33995 ft 452 kts 301°
2026-05-07 18:25 9.75235 -83.23569 33992 ft 453 kts 301°
2026-05-07 18:25 9.78415 -83.29093 34004 ft 453 kts 301°
2026-05-07 18:26 9.81572 -83.34581 33998 ft 453 kts 301°
2026-05-07 18:26 9.84751 -83.40109 34005 ft 454 kts 301°
2026-05-07 18:27 9.87927 -83.45634 34013 ft 454 kts 301°
2026-05-07 18:27 9.91114 -83.51182 34011 ft 455 kts 301°
2026-05-07 18:28 9.94296 -83.56725 34007 ft 455 kts 301°
2026-05-07 18:28 9.97486 -83.62282 34008 ft 456 kts 302°
2026-05-07 18:29 10.00680 -83.67849 34004 ft 456 kts 301°
2026-05-07 18:29 10.03876 -83.73423 34001 ft 457 kts 302°
2026-05-07 18:30 10.07050 -83.78961 34000 ft 457 kts 301°
2026-05-07 18:30 10.10266 -83.84577 34006 ft 458 kts 301°
2026-05-07 18:31 10.13446 -83.90131 34012 ft 459 kts 301°
2026-05-07 18:31 10.16056 -83.94691 34019 ft 459 kts 301°
2026-05-07 18:32 10.19263 -84.00296 34028 ft 459 kts 301°
2026-05-07 18:32 10.22475 -84.05916 34004 ft 460 kts 301°
2026-05-07 18:33 10.25686 -84.11534 34004 ft 460 kts 301°
2026-05-07 18:33 10.28899 -84.17158 33999 ft 461 kts 301°
2026-05-07 18:34 10.32114 -84.22792 33983 ft 461 kts 301°
2026-05-07 18:34 10.35311 -84.28394 33967 ft 462 kts 301°
2026-05-07 18:35 10.38528 -84.34034 33961 ft 462 kts 301°
2026-05-07 18:35 10.41745 -84.39679 33959 ft 462 kts 301°
2026-05-07 18:36 10.44971 -84.45341 33961 ft 463 kts 301°
2026-05-07 18:36 10.48197 -84.51006 33953 ft 463 kts 301°
2026-05-07 18:37 10.51422 -84.56673 33954 ft 463 kts 301°
2026-05-07 18:37 10.54646 -84.62342 33953 ft 464 kts 301°
2026-05-07 18:38 10.57875 -84.68021 33947 ft 464 kts 301°
2026-05-07 18:38 10.61105 -84.73705 33946 ft 465 kts 301°
2026-05-07 18:39 10.64339 -84.79399 33936 ft 465 kts 301°
2026-05-07 18:39 10.67547 -84.85049 33938 ft 465 kts 301°
2026-05-07 18:40 10.70778 -84.90745 33937 ft 465 kts 301°
2026-05-07 18:40 10.74005 -84.96436 33934 ft 465 kts 301°
2026-05-07 18:41 10.77239 -85.02143 33933 ft 465 kts 301°
2026-05-07 18:41 10.80468 -85.07842 33938 ft 465 kts 301°
2026-05-07 18:42 10.83702 -85.13556 33936 ft 466 kts 301°
2026-05-07 18:42 10.86935 -85.19269 33934 ft 466 kts 301°
2026-05-07 18:43 10.90171 -85.24992 33940 ft 466 kts 302°
2026-05-07 18:43 10.93401 -85.30708 33930 ft 466 kts 301°
2026-05-07 18:44 10.96614 -85.36395 33930 ft 465 kts 301°
2026-05-07 18:44 10.99839 -85.42107 33925 ft 466 kts 302°
2026-05-07 18:45 11.03069 -85.47831 33922 ft 465 kts 301°
2026-05-07 18:45 11.06291 -85.53545 33919 ft 464 kts 301°
2026-05-07 18:46 11.08966 -85.58289 33921 ft 464 kts 301°
2026-05-07 18:46 11.12698 -85.64913 33910 ft 464 kts 301°
2026-05-07 18:47 11.15911 -85.70619 33913 ft 464 kts 302°
2026-05-07 18:47 11.19117 -85.76316 33907 ft 464 kts 302°
2026-05-07 18:48 11.21791 -85.81062 33906 ft 464 kts 302°
2026-05-07 18:48 11.25012 -85.86767 33903 ft 464 kts 302°
2026-05-07 18:49 11.28233 -85.92475 33896 ft 464 kts 302°
2026-05-07 18:49 11.31446 -85.98173 33899 ft 464 kts 301°
2026-05-07 18:50 11.34657 -86.03871 33900 ft 463 kts 301°
2026-05-07 18:50 11.37864 -86.09564 33898 ft 463 kts 301°
2026-05-07 18:51 11.41068 -86.15256 33893 ft 463 kts 301°
2026-05-07 18:51 11.44275 -86.20955 33893 ft 463 kts 301°
2026-05-07 18:52 11.47474 -86.26645 33895 ft 462 kts 301°
2026-05-07 18:52 11.50645 -86.32288 33895 ft 461 kts 301°
2026-05-07 18:53 11.53830 -86.37959 33893 ft 460 kts 301°
2026-05-07 18:53 11.57007 -86.43618 33892 ft 459 kts 301°
2026-05-07 18:54 11.60175 -86.49263 33892 ft 458 kts 301°
2026-05-07 18:54 11.63333 -86.54897 33894 ft 457 kts 301°
2026-05-07 18:55 11.66483 -86.60518 33893 ft 456 kts 301°
2026-05-07 18:55 11.69625 -86.66127 33892 ft 455 kts 301°
2026-05-07 18:56 11.72760 -86.71730 33889 ft 455 kts 301°
2026-05-07 18:56 11.75875 -86.77297 33889 ft 454 kts 301°
2026-05-07 18:57 11.79012 -86.82907 33894 ft 454 kts 301°
2026-05-07 18:57 11.82143 -86.88511 33889 ft 454 kts 300°
2026-05-07 18:58 11.85274 -86.94117 33895 ft 454 kts 300°
2026-05-07 18:58 11.88398 -86.99714 33896 ft 453 kts 300°
2026-05-07 18:59 11.91518 -87.05309 33895 ft 453 kts 300°
2026-05-07 18:59 11.94637 -87.10902 33893 ft 453 kts 300°
2026-05-07 19:00 11.97755 -87.16501 33895 ft 454 kts 300°
2026-05-07 19:00 12.00879 -87.22111 33902 ft 454 kts 300°
2026-05-07 19:01 12.03983 -87.27687 33901 ft 454 kts 300°
2026-05-07 19:01 12.07105 -87.33302 33901 ft 454 kts 300°
2026-05-07 19:02 12.10230 -87.38923 33904 ft 455 kts 300°
2026-05-07 19:02 12.13356 -87.44551 33906 ft 455 kts 300°
2026-05-07 19:03 12.16481 -87.50180 33904 ft 455 kts 300°
2026-05-07 19:03 12.19605 -87.55810 33910 ft 455 kts 300°
2026-05-07 19:04 12.22726 -87.61439 33909 ft 455 kts 300°
2026-05-07 19:04 12.25847 -87.67070 33910 ft 455 kts 300°
2026-05-07 19:05 12.28969 -87.72707 33909 ft 455 kts 300°
2026-05-07 19:05 12.32089 -87.78343 33908 ft 455 kts 300°
2026-05-07 19:06 12.35187 -87.83945 33913 ft 455 kts 300°
2026-05-07 19:06 12.39861 -87.92401 33914 ft 455 kts 300°
2026-05-07 19:07 12.42977 -87.98042 33913 ft 455 kts 300°
2026-05-07 19:07 12.46087 -88.03677 33915 ft 455 kts 300°
2026-05-07 19:08 12.49204 -88.09327 33913 ft 455 kts 300°
2026-05-07 19:08 12.52314 -88.14968 33917 ft 455 kts 300°
2026-05-07 19:09 12.55422 -88.20608 33914 ft 455 kts 300°
2026-05-07 19:09 12.58529 -88.26252 33919 ft 455 kts 300°
2026-05-07 19:10 12.61634 -88.31894 33915 ft 455 kts 300°
2026-05-07 19:10 12.64724 -88.37513 33916 ft 455 kts 300°
2026-05-07 19:11 12.67829 -88.43161 33914 ft 455 kts 300°
2026-05-07 19:11 12.70935 -88.48815 33914 ft 455 kts 300°
2026-05-07 19:12 12.74037 -88.54465 33911 ft 455 kts 300°
2026-05-07 19:12 12.77138 -88.60121 33918 ft 455 kts 300°
2026-05-07 19:13 12.80223 -88.65783 33915 ft 455 kts 300°
2026-05-07 19:13 12.83314 -88.71453 33914 ft 456 kts 300°
2026-05-07 19:14 12.86406 -88.77129 33911 ft 456 kts 300°
2026-05-07 19:14 12.89478 -88.82770 33910 ft 456 kts 300°
2026-05-07 19:15 12.92567 -88.88448 33910 ft 456 kts 300°
2026-05-07 19:15 12.95655 -88.94127 33910 ft 456 kts 300°
2026-05-07 19:16 12.98743 -88.99810 33904 ft 456 kts 300°
2026-05-07 19:16 13.01827 -89.05483 33902 ft 456 kts 300°
2026-05-07 19:17 13.04903 -89.11131 33901 ft 456 kts 300°
2026-05-07 19:17 13.07995 -89.16812 33898 ft 456 kts 300°
2026-05-07 19:18 13.11087 -89.22497 33895 ft 456 kts 300°
2026-05-07 19:18 13.14175 -89.28178 33892 ft 456 kts 300°
2026-05-07 19:19 13.17263 -89.33861 33894 ft 456 kts 300°
2026-05-07 19:19 13.20346 -89.39542 33892 ft 456 kts 300°
2026-05-07 19:20 13.23431 -89.45227 33896 ft 456 kts 299°
2026-05-07 19:20 13.26514 -89.50914 33897 ft 456 kts 300°
2026-05-07 19:21 13.29596 -89.56603 33913 ft 455 kts 300°
2026-05-07 19:21 13.32660 -89.62262 33928 ft 456 kts 299°
2026-05-07 19:22 13.35738 -89.67950 33947 ft 456 kts 299°
2026-05-07 19:22 13.38818 -89.73646 33957 ft 456 kts 299°
2026-05-07 19:23 13.41892 -89.79336 33964 ft 456 kts 300°
2026-05-07 19:23 13.44969 -89.85034 33982 ft 456 kts 300°
2026-05-07 19:24 13.48043 -89.90730 33978 ft 456 kts 300°
2026-05-07 19:24 13.51118 -89.96434 33986 ft 456 kts 299°
2026-05-07 19:25 13.54176 -90.02108 33986 ft 456 kts 299°
2026-05-07 19:25 13.57248 -90.07812 33987 ft 456 kts 299°
2026-05-07 19:26 13.60320 -90.13521 33988 ft 456 kts 299°
2026-05-07 19:26 13.63373 -90.19196 33993 ft 456 kts 299°
2026-05-07 19:27 13.66442 -90.24907 33998 ft 456 kts 299°
2026-05-07 19:27 13.69528 -90.30654 33998 ft 456 kts 299°
2026-05-07 19:28 13.72577 -90.36334 33999 ft 457 kts 299°
2026-05-07 19:28 13.75648 -90.42061 34008 ft 457 kts 299°
2026-05-07 19:29 13.78715 -90.47783 34009 ft 457 kts 299°
2026-05-07 19:29 13.81788 -90.53521 33976 ft 457 kts 299°
2026-05-07 19:30 13.84857 -90.59256 33933 ft 457 kts 299°
2026-05-07 19:30 13.87931 -90.65004 33906 ft 458 kts 299°
2026-05-07 19:31 13.90982 -90.70713 33891 ft 458 kts 299°
2026-05-07 19:31 13.94049 -90.76454 33895 ft 458 kts 299°
2026-05-07 19:32 13.97114 -90.82198 33890 ft 458 kts 299°
2026-05-07 19:32 14.00183 -90.87952 33890 ft 458 kts 299°
2026-05-07 19:33 14.03250 -90.93706 33891 ft 458 kts 299°
2026-05-07 19:33 14.06312 -90.99455 33908 ft 458 kts 299°
2026-05-07 19:34 14.09372 -91.05206 33935 ft 457 kts 299°
2026-05-07 19:34 14.12430 -91.10955 33976 ft 457 kts 299°
2026-05-07 19:35 14.14970 -91.15735 34001 ft 458 kts 299°
2026-05-07 19:35 14.18523 -91.22425 33996 ft 457 kts 299°
2026-05-07 19:36 14.21573 -91.28172 33997 ft 457 kts 299°
2026-05-07 19:36 14.24129 -91.32993 33997 ft 457 kts 299°
2026-05-07 19:37 14.27163 -91.38717 33998 ft 457 kts 299°
2026-05-07 19:37 14.30209 -91.44469 33972 ft 457 kts 299°
2026-05-07 19:38 14.33254 -91.50222 33930 ft 457 kts 299°
2026-05-07 19:38 14.36299 -91.55982 33909 ft 457 kts 299°
2026-05-07 19:39 14.39344 -91.61744 33892 ft 457 kts 299°
2026-05-07 19:39 14.42382 -91.67496 33888 ft 457 kts 299°
2026-05-07 19:40 14.45423 -91.73260 33889 ft 457 kts 299°
2026-05-07 19:40 14.48460 -91.79020 33888 ft 457 kts 299°
2026-05-07 19:41 14.51477 -91.84746 33891 ft 457 kts 299°
2026-05-07 19:41 14.54508 -91.90500 33912 ft 457 kts 298°
2026-05-07 19:42 14.57538 -91.96259 33929 ft 456 kts 299°
2026-05-07 19:42 14.60568 -92.02021 33968 ft 457 kts 299°
2026-05-07 19:43 14.63597 -92.07785 33980 ft 457 kts 299°
2026-05-07 19:43 14.66626 -92.13556 33962 ft 457 kts 298°
2026-05-07 19:44 14.69657 -92.19333 33940 ft 457 kts 299°
2026-05-07 19:44 14.72682 -92.25099 33927 ft 457 kts 298°
2026-05-07 19:45 14.75690 -92.30835 33916 ft 456 kts 298°
2026-05-07 19:45 14.78713 -92.36602 33913 ft 456 kts 300°
2026-05-07 19:46 14.82153 -92.42097 33916 ft 456 kts 303°
2026-05-07 19:46 14.85598 -92.47609 33923 ft 456 kts 303°
2026-05-07 19:47 14.89032 -92.53136 33926 ft 457 kts 303°
2026-05-07 19:47 14.92467 -92.58671 33929 ft 457 kts 303°
2026-05-07 19:48 14.95901 -92.64211 33927 ft 457 kts 303°
2026-05-07 19:48 14.99331 -92.69744 33931 ft 457 kts 303°
2026-05-07 19:49 15.02759 -92.75266 33913 ft 456 kts 303°
2026-05-07 19:49 15.06177 -92.80756 33905 ft 456 kts 303°
2026-05-07 19:50 15.09611 -92.86277 33894 ft 456 kts 303°
2026-05-07 19:50 15.13045 -92.91801 33888 ft 456 kts 303°
2026-05-07 19:51 15.16475 -92.97324 33881 ft 456 kts 303°
2026-05-07 19:51 15.19904 -93.02849 33878 ft 456 kts 303°
2026-05-07 19:52 15.23329 -93.08370 33874 ft 455 kts 303°
2026-05-07 19:52 15.26751 -93.13892 33875 ft 455 kts 303°
2026-05-07 19:53 15.30168 -93.19410 33877 ft 455 kts 303°
2026-05-07 19:53 15.33587 -93.24933 33877 ft 455 kts 303°
2026-05-07 19:54 15.36981 -93.30422 33877 ft 455 kts 303°
2026-05-07 19:54 15.40388 -93.35935 33879 ft 454 kts 303°
2026-05-07 19:55 15.43793 -93.41449 33879 ft 454 kts 303°
2026-05-07 19:55 15.47199 -93.46968 33876 ft 454 kts 302°
2026-05-07 19:56 15.50596 -93.52477 33878 ft 453 kts 302°
2026-05-07 19:56 15.53992 -93.57988 33878 ft 453 kts 302°
2026-05-07 19:57 15.57385 -93.63498 33882 ft 453 kts 302°
2026-05-07 19:57 15.60775 -93.69008 33876 ft 453 kts 302°
2026-05-07 19:58 15.64162 -93.74517 33882 ft 453 kts 302°
2026-05-07 19:58 15.67547 -93.80025 33878 ft 452 kts 302°
2026-05-07 19:59 15.70907 -93.85498 33881 ft 452 kts 302°
2026-05-07 19:59 15.74288 -93.91009 33878 ft 452 kts 302°
2026-05-07 20:00 15.77669 -93.96523 33876 ft 452 kts 302°
2026-05-07 20:00 15.81044 -94.02033 33876 ft 452 kts 302°
2026-05-07 20:01 15.84420 -94.07547 33879 ft 452 kts 302°
2026-05-07 20:01 15.87794 -94.13063 33879 ft 452 kts 302°
2026-05-07 20:02 15.91162 -94.18572 33875 ft 451 kts 302°
2026-05-07 20:02 15.94508 -94.24051 33870 ft 451 kts 302°
2026-05-07 20:03 15.97869 -94.29557 33872 ft 451 kts 301°
2026-05-07 20:03 16.01224 -94.35057 33872 ft 450 kts 301°
2026-05-07 20:04 16.04578 -94.40559 33868 ft 450 kts 301°
2026-05-07 20:04 16.07930 -94.46064 33868 ft 450 kts 301°
2026-05-07 20:05 16.11276 -94.51562 33867 ft 450 kts 301°
2026-05-07 20:05 16.14622 -94.57065 33869 ft 450 kts 301°
2026-05-07 20:06 16.17945 -94.62534 33868 ft 450 kts 301°
2026-05-07 20:06 16.21291 -94.68045 33868 ft 450 kts 301°
2026-05-07 20:07 16.24631 -94.73549 33865 ft 450 kts 301°
2026-05-07 20:07 16.27970 -94.79056 33863 ft 450 kts 301°
2026-05-07 20:08 16.31304 -94.84561 33862 ft 449 kts 301°
2026-05-07 20:08 16.34639 -94.90069 33860 ft 449 kts 301°
2026-05-07 20:09 16.37965 -94.95569 33854 ft 449 kts 301°
2026-05-07 20:10 16.42932 -95.03788 33848 ft 448 kts 301°
2026-05-07 20:10 16.46229 -95.09290 33841 ft 448 kts 298°
2026-05-07 20:11 16.49293 -95.14929 33844 ft 448 kts 298°
2026-05-07 20:11 16.52385 -95.20568 33832 ft 447 kts 298°
2026-05-07 20:12 16.55476 -95.26202 33836 ft 448 kts 298°
2026-05-07 20:12 16.58568 -95.31843 33821 ft 447 kts 298°
2026-05-07 20:13 16.61647 -95.37466 33818 ft 447 kts 298°
2026-05-07 20:13 16.64731 -95.43100 33810 ft 447 kts 298°
2026-05-07 20:14 16.67791 -95.48698 33809 ft 447 kts 298°
2026-05-07 20:14 16.70871 -95.54333 33796 ft 447 kts 298°
2026-05-07 20:15 16.73943 -95.59961 33796 ft 447 kts 298°
2026-05-07 20:15 16.77018 -95.65600 33792 ft 447 kts 298°
2026-05-07 20:16 16.80085 -95.71228 33790 ft 446 kts 298°
2026-05-07 20:16 16.83153 -95.76859 33792 ft 446 kts 298°
2026-05-07 20:17 16.86211 -95.82492 33789 ft 445 kts 298°
2026-05-07 20:17 16.89244 -95.88086 33790 ft 445 kts 298°
2026-05-07 20:18 16.92290 -95.93706 33796 ft 444 kts 298°
2026-05-07 20:18 16.95331 -95.99323 33802 ft 445 kts 298°
2026-05-07 20:19 16.98376 -96.04954 33803 ft 444 kts 298°
2026-05-07 20:19 17.01415 -96.10574 33813 ft 445 kts 298°
2026-05-07 20:20 17.04455 -96.16203 33821 ft 445 kts 298°
2026-05-07 20:20 17.07495 -96.21837 33828 ft 444 kts 298°
2026-05-07 20:21 17.10531 -96.27469 33830 ft 445 kts 298°
2026-05-07 20:21 17.13540 -96.33053 33834 ft 445 kts 298°
2026-05-07 20:22 17.16578 -96.38695 33844 ft 446 kts 298°
2026-05-07 20:22 17.19612 -96.44334 33866 ft 444 kts 298°
2026-05-07 20:23 17.22622 -96.49932 33890 ft 444 kts 297°
2026-05-07 20:23 17.25651 -96.55568 33901 ft 444 kts 298°
2026-05-07 20:24 17.28676 -96.61202 33897 ft 444 kts 298°
2026-05-07 20:24 17.31698 -96.66838 33876 ft 443 kts 298°
2026-05-07 20:25 17.34713 -96.72463 33796 ft 443 kts 297°
2026-05-07 20:25 17.36217 -96.75270 33514 ft 442 kts 297°
2026-05-07 20:25 17.37212 -96.77130 33334 ft 442 kts 298°
2026-05-07 20:25 17.38717 -96.79942 33053 ft 443 kts 298°
2026-05-07 20:26 17.40227 -96.82765 32770 ft 445 kts 297°
2026-05-07 20:26 17.41739 -96.85593 32486 ft 445 kts 297°
2026-05-07 20:26 17.43253 -96.88425 32209 ft 447 kts 297°
2026-05-07 20:26 17.44771 -96.91267 32027 ft 448 kts 297°
2026-05-07 20:27 17.46298 -96.94124 31951 ft 450 kts 297°
2026-05-07 20:27 17.49356 -96.99856 31823 ft 453 kts 297°
2026-05-07 20:27 17.50899 -97.02747 31698 ft 455 kts 297°
2026-05-07 20:28 17.52443 -97.05644 31576 ft 455 kts 298°
2026-05-07 20:28 17.53987 -97.08535 31456 ft 456 kts 297°
2026-05-07 20:28 17.55538 -97.11445 31333 ft 456 kts 297°
2026-05-07 20:28 17.57064 -97.14312 31215 ft 457 kts 297°
2026-05-07 20:29 17.58615 -97.17225 31098 ft 457 kts 298°
2026-05-07 20:29 17.60418 -97.19964 30975 ft 459 kts 311°
2026-05-07 20:29 17.62727 -97.22294 30869 ft 462 kts 314°
2026-05-07 20:30 17.67325 -97.27027 30669 ft 464 kts 315°
2026-05-07 20:30 17.71963 -97.31724 30455 ft 464 kts 315°
2026-05-07 20:31 17.76619 -97.36427 30246 ft 465 kts 315°
2026-05-07 20:31 17.78948 -97.38780 30145 ft 465 kts 315°
2026-05-07 20:31 17.81279 -97.41135 30039 ft 465 kts 315°
2026-05-07 20:32 17.85939 -97.45848 29829 ft 466 kts 315°
2026-05-07 20:32 17.88276 -97.48213 29697 ft 466 kts 315°
2026-05-07 20:32 17.90609 -97.50574 29589 ft 466 kts 315°
2026-05-07 20:32 17.92914 -97.52960 29453 ft 465 kts 311°
2026-05-07 20:33 17.95038 -97.55522 29311 ft 465 kts 310°
2026-05-07 20:33 17.97158 -97.58057 29040 ft 460 kts 310°
2026-05-07 20:33 17.99284 -97.60573 28724 ft 460 kts 310°
2026-05-07 20:33 18.01407 -97.63072 28408 ft 460 kts 310°
2026-05-07 20:34 18.03544 -97.65582 28087 ft 461 kts 310°
2026-05-07 20:34 18.05658 -97.68065 27774 ft 462 kts 310°
2026-05-07 20:34 18.07803 -97.70586 27462 ft 463 kts 310°
2026-05-07 20:34 18.09952 -97.73112 27155 ft 464 kts 310°
2026-05-07 20:35 18.12107 -97.75645 26845 ft 465 kts 310°
2026-05-07 20:35 18.14268 -97.78187 26539 ft 466 kts 310°
2026-05-07 20:35 18.16431 -97.80732 26235 ft 467 kts 310°
2026-05-07 20:35 18.18590 -97.83273 25954 ft 464 kts 310°
2026-05-07 20:36 18.20739 -97.85805 25661 ft 463 kts 310°
2026-05-07 20:36 18.22695 -97.88111 25392 ft 460 kts 310°
2026-05-07 20:36 18.24810 -97.90605 25115 ft 452 kts 310°
2026-05-07 20:36 18.26892 -97.93061 24834 ft 448 kts 310°
2026-05-07 20:37 18.28965 -97.95506 24553 ft 446 kts 310°
2026-05-07 20:37 18.31028 -97.97940 24269 ft 444 kts 310°
2026-05-07 20:37 18.33077 -98.00360 23995 ft 443 kts 310°
2026-05-07 20:37 18.35124 -98.02777 23724 ft 441 kts 310°
2026-05-07 20:38 18.37163 -98.05185 23448 ft 440 kts 309°
2026-05-07 20:38 18.39200 -98.07593 23150 ft 439 kts 310°
2026-05-07 20:38 18.41229 -98.09991 22831 ft 437 kts 310°
2026-05-07 20:38 18.43219 -98.12344 22513 ft 435 kts 310°
2026-05-07 20:39 18.45224 -98.14716 22198 ft 433 kts 310°
2026-05-07 20:39 18.47220 -98.17079 21879 ft 430 kts 310°
2026-05-07 20:39 18.49203 -98.19427 21575 ft 428 kts 310°
2026-05-07 20:39 18.51179 -98.21768 21267 ft 426 kts 310°
2026-05-07 20:40 18.53141 -98.24093 20960 ft 424 kts 310°
2026-05-07 20:40 18.55095 -98.26408 20667 ft 421 kts 310°
2026-05-07 20:40 18.57037 -98.28711 20393 ft 419 kts 310°
2026-05-07 20:40 18.58973 -98.31008 20094 ft 417 kts 310°
2026-05-07 20:41 18.60892 -98.33286 19798 ft 415 kts 310°
2026-05-07 20:41 18.62800 -98.35550 19524 ft 413 kts 310°
2026-05-07 20:41 18.64705 -98.37812 19239 ft 411 kts 310°
2026-05-07 20:41 18.66597 -98.40060 18965 ft 408 kts 311°
2026-05-07 20:42 18.68481 -98.42299 18681 ft 407 kts 311°
2026-05-07 20:42 18.70354 -98.44527 18416 ft 405 kts 311°
2026-05-07 20:42 18.72218 -98.46743 18150 ft 403 kts 311°
2026-05-07 20:42 18.74059 -98.48933 17917 ft 388 kts 311°
2026-05-07 20:43 18.75805 -98.51011 17721 ft 369 kts 311°
2026-05-07 20:43 18.77449 -98.52967 17529 ft 353 kts 311°
2026-05-07 20:43 18.79063 -98.54890 17301 ft 349 kts 311°
2026-05-07 20:43 18.80668 -98.56802 17076 ft 346 kts 311°
2026-05-07 20:44 18.82258 -98.58697 16857 ft 343 kts 311°
2026-05-07 20:44 18.83838 -98.60581 16626 ft 342 kts 311°
2026-05-07 20:44 18.85412 -98.62457 16407 ft 341 kts 311°
2026-05-07 20:44 18.86979 -98.64326 16223 ft 339 kts 311°
2026-05-07 20:45 18.88539 -98.66187 16030 ft 338 kts 311°
2026-05-07 20:45 18.90092 -98.68040 15839 ft 336 kts 311°
2026-05-07 20:45 18.91636 -98.69884 15645 ft 334 kts 311°
2026-05-07 20:45 18.93171 -98.71717 15464 ft 333 kts 311°
2026-05-07 20:46 18.94702 -98.73546 15278 ft 331 kts 311°
2026-05-07 20:46 18.96225 -98.75366 15087 ft 330 kts 311°
2026-05-07 20:46 18.97742 -98.77181 14902 ft 329 kts 311°
2026-05-07 20:46 18.99236 -98.78966 14718 ft 328 kts 312°
2026-05-07 20:47 19.00746 -98.80772 14532 ft 327 kts 312°
2026-05-07 20:47 19.02245 -98.82566 14351 ft 322 kts 312°
2026-05-07 20:47 19.03714 -98.84323 14159 ft 316 kts 312°
2026-05-07 20:47 19.05155 -98.86049 14012 ft 310 kts 312°
2026-05-07 20:48 19.06569 -98.87741 13837 ft 304 kts 312°
2026-05-07 20:48 19.07960 -98.89407 13695 ft 300 kts 312°
2026-05-07 20:48 19.09335 -98.91056 13520 ft 297 kts 312°
2026-05-07 20:48 19.10692 -98.92681 13361 ft 292 kts 312°
2026-05-07 20:49 19.12017 -98.94270 13244 ft 284 kts 312°
2026-05-07 20:49 19.13307 -98.95816 13091 ft 278 kts 312°
2026-05-07 20:49 19.14574 -98.97335 12939 ft 272 kts 312°
2026-05-07 20:49 19.15820 -98.98829 12752 ft 269 kts 312°
2026-05-07 20:50 19.17045 -99.00301 12598 ft 264 kts 312°
2026-05-07 20:50 19.18306 -99.01696 12396 ft 261 kts 317°
2026-05-07 20:50 19.19607 -99.02978 12222 ft 257 kts 317°
2026-05-07 20:50 19.20905 -99.04268 12060 ft 255 kts 317°
2026-05-07 20:51 19.22192 -99.05556 11878 ft 255 kts 317°
2026-05-07 20:51 19.23473 -99.06842 11706 ft 254 kts 316°
2026-05-07 20:51 19.24681 -99.08198 11537 ft 254 kts 307°
2026-05-07 20:51 19.25733 -99.09696 11357 ft 252 kts 307°
2026-05-07 20:52 19.26767 -99.11148 11211 ft 243 kts 307°
2026-05-07 20:52 19.27782 -99.12558 10991 ft 239 kts 307°
2026-05-07 20:52 19.28786 -99.13946 10761 ft 236 kts 308°
2026-05-07 20:52 19.29773 -99.15301 10534 ft 227 kts 308°
2026-05-07 20:53 19.30711 -99.16584 10310 ft 216 kts 308°
2026-05-07 20:53 19.31630 -99.17817 10001 ft 211 kts 311°
2026-05-07 20:53 19.32697 -99.18855 9698 ft 206 kts 328°
2026-05-07 20:53 19.34006 -99.19417 9459 ft 201 kts 351°
2026-05-07 20:54 19.35355 -99.19389 9323 ft 190 kts 15°
2026-05-07 20:54 19.36522 -99.18863 9214 ft 178 kts 36°
2026-05-07 20:54 19.37416 -99.18012 9092 ft 170 kts 52°
2026-05-07 20:54 19.38038 -99.16971 9091 ft 168 kts 62°
2026-05-07 20:55 19.38601 -99.15901 9074 ft 170 kts 59°
2026-05-07 20:55 19.39206 -99.14824 9050 ft 171 kts 59°
2026-05-07 20:55 19.39811 -99.13747 9007 ft 169 kts 60°
2026-05-07 20:55 19.40408 -99.12680 8966 ft 169 kts 59°
2026-05-07 20:56 19.41012 -99.11603 8882 ft 170 kts 60°
2026-05-07 20:56 19.41610 -99.10520 8239 ft 171 kts 60°
2026-05-07 20:56 19.42198 -99.09442 7633 ft 167 kts 55°
2026-05-07 20:56 19.42800 -99.08406 7359 ft 165 kts 57°
2026-05-07 20:57 19.43353 -99.07422 7307 ft 144 kts 57°
2026-05-07 20:57 19.43759 -99.06699 7305 ft 82 kts 60°
2026-05-07 20:57 19.43951 -99.06345 7304 ft 20 kts 71°
2026-05-07 20:57 19.43969 -99.06220 7305 ft 12 kts 90°
2026-05-07 20:58 19.43969 -99.06146 7305 ft 10 kts 90°
2026-05-07 20:58 19.43968 -99.06099 7305 ft 0 kts 92°
2026-05-07 20:58 19.43968 -99.06094 7305 ft 1 kts 92°
2026-05-07 20:58 19.43967 -99.06081 7305 ft 2 kts 92°
2026-05-07 20:59 19.43966 -99.06060 7305 ft 3 kts 95°
2026-05-07 20:59 19.43961 -99.06031 7305 ft 4 kts 105°
2026-05-07 20:59 19.43956 -99.06025 7305 ft 0 kts 141°
2026-05-07 20:59 19.43933 -99.06023 7305 ft 9 kts 189°
2026-05-07 21:00 19.43899 -99.06069 7305 ft 8 kts 253°
2026-05-07 21:00 19.43884 -99.06127 7305 ft 9 kts 255°
2026-05-07 21:00 19.43864 -99.06187 7305 ft 8 kts 240°
2026-05-07 21:00 19.43826 -99.06248 7305 ft 14 kts 234°
2026-05-07 21:01 19.43752 -99.06373 7305 ft 24 kts 240°
2026-05-07 21:01 19.43669 -99.06519 7305 ft 20 kts 240°
2026-05-07 21:01 19.43596 -99.06649 7305 ft 21 kts 238°
2026-05-07 21:01 19.43503 -99.06729 7305 ft 12 kts 205°
2026-05-07 21:02 19.43432 -99.06778 7305 ft 12 kts 225°
2026-05-07 21:02 19.43412 -99.06841 7305 ft 8 kts 249°
2026-05-07 21:02 19.43374 -99.06915 7305 ft 15 kts 239°
2026-05-07 21:02 19.43314 -99.07020 7305 ft 18 kts 239°
2026-05-07 21:03 19.43264 -99.07139 7305 ft 18 kts 262°
2026-05-07 21:03 19.43242 -99.07269 7305 ft 18 kts 248°
2026-05-07 21:03 19.43178 -99.07385 7305 ft 19 kts 238°
2026-05-07 21:03 19.43109 -99.07505 7305 ft 19 kts 239°
2026-05-07 21:04 19.43040 -99.07629 7305 ft 20 kts 239°
2026-05-07 21:04 19.42963 -99.07751 7305 ft 20 kts 228°
2026-05-07 21:04 19.42850 -99.07843 7305 ft 21 kts 210°
2026-05-07 21:04 19.42748 -99.07879 7305 ft 8 kts 159°
2026-05-07 21:05 19.42698 -99.07847 7305 ft 9 kts 147°
2026-05-07 21:05 19.42643 -99.07815 7305 ft 8 kts 168°
2026-05-07 21:05 19.42603 -99.07825 7305 ft 6 kts 205°
2026-05-07 21:05 19.42563 -99.07843 7305 ft 7 kts 201°
2026-05-07 21:06 19.42537 -99.07841 7305 ft 3 kts 166°
2026-05-07 21:06 19.42523 -99.07837 7305 ft 1 kts 169°
2026-05-07 21:06 19.42520 -99.07837 7305 ft 1 kts 174°
2026-05-07 21:06 19.42502 -99.07841 7305 ft 1 kts 200°
2026-05-07 21:07 19.42500 -99.07842 7305 ft 0 kts 200°
2026-05-07 21:07 19.42498 -99.07843 7305 ft 0 kts 201°
2026-05-07 21:07 19.42497 -99.07844 7305 ft 0 kts 201°
2026-05-07 21:08 19.42496 -99.07844 7305 ft 0 kts 202°
2026-05-07 21:09 19.42497 -99.07844 7305 ft 0 kts 202°
2026-05-07 21:26 19.42497 -99.07843 7305 ft 0 kts 202°